Погода в Умани

Погода в Умани : погода сейчас, прогноз погоды и архив. Всё, что Вы хотите узнать о погоде в Умани!

Хотите узнать прогноз погоды в Умани? Тогда Вам сюда: Погода в Умани

Поиск расширенной информации на нашем сайте:

Другие новости

Новости СМИ2

Главная страница сайта

Новости сайта

03.07.2017

Напоминаем, что на нашем специализированном сайте Метеоцентр.Азия вы можете получить высокодетализированные автоматические прогнозы погоды по пунктам России, СНГ и мира в авиационном формате (включающие направление и скорость ветра, видимость, явления погоды, количество и форму облачности, нижнюю и верхнюю границу облачности).


Погода в Умани - сегодня

Время (UTC), дата Ветер
(°,м/с) 
Видим.   Явления Облачность Т
(°С)
Тd
(°С)
f(%) Тe
(°С)
Pmin
(гПа)
dP
(гПа)
Po
(мм)
O2
(г/м3)
Тmin Tmax R s Состояние
почвы
18 24.07.17 тихо ()   20000 м    10/0 верхняя 
[Ci fib]
+25.1 +15 53 +34  1009  0.1  738  269           
21 24.07.17 тихо ()   н/о    3/3 1000 м 
[Sc]
+21.9 +15.6 67 +32  1008.9  -0.4  738  272           
00 25.07.17 тихо ()   н/о    10/10 960 м 
[Sc]
+19.7 +15.1 75 +29  1008.3  -0.7  738  274           
03 25.07.17 тихо ()   10 км    3/0 средняя 
[Ac trans]
+18.7 +13.8 73 +26  1007.2  -1.1  737  275           
06 25.07.17 130 (ЮВ) 20000 м    ясно 
+23.9 +13.8 53 +31  1006.5  -0.3  737  270  +18.5         
09 25.07.17 230 (ЮЗ) 20000 м    ясно 
+29.7 +14.7 40 +38  1004.8  -1.2  736  264           
12 25.07.17 130 (ЮВ) 20000 м    3/3 1000 м 
[Cu hum]
+32.1 +14.5 35 +40  1003  -1.6  734  262           
15 25.07.17 180 (Ю) 20000 м  в посл. час ливневой дождь  8/6 600 м кучево-дожд., средняя 
[Cb cap|Ac trans]
+31.6 +15.7 38 +42  1001.6  -1.4  733  262           
18 25.07.17 140 (ЮВ) 10 км  {гроза}  10/10 1000 м 
[Sc]
+26 +17 58 +39  1002.8  0.7  734  266    +32.9  0.0     
21 25.07.17 тихо ()   н/о  дымка{гроза, ливн. осадки}  ясно 
+20.1 +19.2 95 +38  1002.3  -0.9  733  271           
00 26.07.17 170 (Ю) н/о  {гроза, ливн. осадки}  ясно 
+20 +16.4 80 +32  1003.4  734  272      0.7     
03 26.07.17 тихо ()   10 км    4/0 средняя 
[Ac trans]
+18.3 +15.6 84 +29  1003.3  -0.3  734  274           
06 26.07.17 180 (Ю) 10 км    8/5 1000 м средняя 
[Sc|Ac trans]
+21.7 +15.4 67 +32  1003.5  0.6  734  271  +18.3    0.7     
09 26.07.17 150 (ЮВ) 10 км    10/6 1000 м средняя 
[Sc|Ac trans]
+23 +16.6 67 +35  1004.5  735  270           
12 26.07.17 220 (ЮЗ) 20000 м    6/6 1000 м 
[Cu hum]
+28.5 +15.7 46 +39  1003.8  -0.2  735  265           
15 26.07.17 240 (ЮЗ) 20000 м    3/3 1000 м 
[Cu hum]
+28.9 +14.6 42 +37  1002.9  -0.9  734  265           
18 26.07.17 тихо ()   20000 м    8/8 600 м 
[Sc]
+25.1 +15.8 56 +36  1003.9  0.7  735  268           
21 26.07.17 тихо ()   н/о  зарница  6/6 600 м 
[Sc]
+22 +15.3 66 +32  1005  0.9  735  271           
00 27.07.17 тихо ()   н/о    ясно 
+17.8 +15.6 87 +28  1006  0.6  736  275           
03 27.07.17 060 (СВ) 10 км    ясно 
+16.4 +14.7 90 +27  1006.1  -0.1  736  277           
06 27.07.17 тихо ()   10 км    10/10 960 м кучево-дожд. 
[Cb calv]
+19.3 +16.3 83 +31  1006.7  0.9  736  274  +15.7  +2       
09 27.07.17 тихо ()   10 км    10/10 930 м кучево-дожд. 
[Cb calv]
+24.3 +17.6 66 +38  1006  -0.2  736  268           
12 27.07.17 070 (В) 10 км  {ливн. осадки}  10/10 900 м кучево-дожд. 
[Cb calv]
+25.9 +17.8 61 +40  1005.2  -0.7  736  267           
15 27.07.17 020 (С) 10 км    10/8 1000 м верхняя 
[Sc|Ci fib]
+26.3 +16.9 56 +39  1004.7  -0.5  735  267           
18 27.07.17 310 (СЗ) 10 км    10/6 1000 м верхняя 
[Sc|Ci fib]
+23 +15.7 63 +33  1005.4  0.4  736  270    +27.9  0.0     
Время (UTC), дата Ветер
(°,м/с) 
Видим.   Явления Облачность Т
(°С)
Тd
(°С)
f(%) Тe
(°С)
Pmin
(гПа)
dP
(гПа)
Po
(мм)
O2
(г/м3)
Тmin Tmax R s Состояние
почвы

Для получения пояснительной информации подведите курсор к названию столбца.

ПОГОДА в Умани - архив

Всё, что Вы хотите узнать о погоде в Умани - удобно и подробно!

Выберите нужную дату (начиная с 1 января 2015* года) и нажмите кнопку "Найти".
Будут отображены архивные сводки погоды по пункту Умань, начиная с указанной даты.


Отображать данные в формате CSV (для использования в таблицах Excel)


Внимание! Наш архив погоды предназначен исключительно для личного некоммерческого использования в познавательных целях. Если Вам необходимы официальные справки о состоянии погоды (для производственных, юридических, коммерческих и т.п. целей), обращайтесь в органы Росгидромета.

*Примечание: данная дата относится к архиву по метеостанциям СССР (Россия, СНГ, Балтия).
Архив по метеостанциям Зарубежной Европы и Азии (кроме Китая) хранится 10 дней, по другим регионам земного шара (Китай, Африка, Америка, Австралия, Океания) - 1 день.

Умань - район местоположения метеостанции


Название, широта, долгота, высота метеостанции:
Умань 48.8°ш. 30.2°д. 216 м над ур. моря [Украина]

Дополнительная информация

В oтличие oт бoльшинства пoгoдных сайтoв мы публикуем пoдрoбную метеoинфoрмацию в детальнoм прoфессиoнальнoм фoрмате.

Характеристики температуры и влажнoсти вoздуха измеряются на высoте 2 м в тени вдали oт зданий и деревьев.
Скoрoсть ветра измеряется на высoте 10 м (на урoвне рoста челoвека скoрoсть ветра ниже в 1.5-2 раза). Если метеoстанция нахoдится в гoрoде или в лесу, тo скoрoсть ветра занижена на 2-4 м/с пo сравнению с oткрытым местoм. Скoрoсть ветра над акватoриями крупных рек и oзёр, а также на вершинах хoлмoв на 2-5 м/с выше, чем в oбычных услoвиях.
Атмoсфернoе давление в разных тoчках местнoсти мoжет значительнo oтличаться oт давления на метеoстанции, в зависимoсти oт услoвий рельефа (при пoдъёме на 10 м давление пoнижается примернo на 1 мм рт.ст.).